Location: Chrząstowo
(52.0654°N, 17.1290°E)
Time: 02:24:52
(UTC+01:00)

Envisat - Pass Details

Date: 15 December 2019
Orbit: 764 x 766 km, 98.1° (Epoch: 28 January)

Event Time Altitude Azimuth Distance (km) Brightness Sun altitude
Rises 17:11:55 0° 153° (SSE) 3,224 6.2 -13.1°
Reaches altitude 10° 17:14:13 10° 151° (SSE) 2,302 5.4 -13.4°
Maximum altitude 17:19:14 64° 71° (ENE) 848 2.9 -14.1°
Drops below altitude 10° 17:24:17 10° 350° (N) 2,318 5.4 -14.9°
Sets 17:26:37 0° 348° (NNW) 3,249 6.2 -15.2°
